QPF
0.04 0.07 0.10 0.15 0.14 0.18 0.19 0.16 0.17 0.19 0.17 0.14 0.13 0.13 0.10 0.09 0.08 0.08 0.06 0.07 0.07 0.06 0.05 0.04 0.03 0.02 0.03 0.03 0.03 0.02 0.01 0.01 0.01 0.02 0.02 0.02 0.01 0.00 0.01 0.02 0.02 0.02 0.03
0.03 0.06 0.08 0.14 0.11 0.10 0.12 0.12 0.12 0.16 0.13 0.12 0.14 0.13 0.11 0.09 0.08 0.08 0.06 0.05 0.05 0.04 0.04 0.04 0.03 0.03 0.03 0.03 0.02 0.02 0.01 0.01 0.01 0.02 0.02 0.03 0.03 0.01 0.01 0.01 0.01 0.02 0.03
0.02 0.03 0.03 0.05 0.06 0.06 0.09 0.09 0.10 0.12 0.15 0.14 0.14 0.14 0.12 0.09 0.07 0.07 0.05 0.04 0.03 0.02 0.02 0.02 0.02 0.02 0.02 0.02 0.01 0.01 0.01 0.01 0.00 0.01 0.01 0.01 0.02 0.02 0.01 0.01 0.01 0.01 0.02
0.01 0.02 0.02 0.02 0.03 0.05 0.08 0.09 0.11 0.12 0.14 0.15 0.12 0.11 0.08 0.07 0.07 0.07 0.06 0.05 0.04 0.03 0.02 0.01 0.02 0.02 0.02 0.01 0.00 0.00 0.00 0.00 0.00 0.00 0.00 0.00 0.01 0.01 0.01 0.01 0.00 0.00 0.01
0.02 0.02 0.01 0.01 0.03 0.03 0.05 0.08 0.11 0.13 0.14 0.15 0.15 0.15 0.11 0.09 0.09 0.07 0.05 0.04 0.03 0.02 0.01 0.01 0.01 0.01 0.01 0.01 0.01 0.00 0.00 0.00 0.00 0.00 0.00 0.00 0.00 0.00 0.00 0.01 0.00 0.00 0.00
0.01 0.01 0.01 0.01 0.02 0.02 0.03 0.05 0.07 0.11 0.12 0.16 0.18 0.17 0.13 0.10 0.07 0.06 0.04 0.03 0.03 0.02 0.01 0.01 0.01 0.01 0.01 0.01 0.01 0.00 0.00 0.00 0.00 0.00 0.00 0.00 0.00 0.00 0.00 0.01 0.01 0.01 0.00
0.01 0.01 0.01 0.01 0.01 0.02 0.04 0.04 0.06 0.08 0.10 0.13 0.15 0.16 0.13 0.10 0.08 0.06 0.04 0.02 0.02 0.02 0.02 0.01 0.01 0.01 0.01 0.00 0.00 0.00 0.00 0.00 0.00 0.00 0.00 0.00 0.00 0.00 0.00 0.01 0.00 0.00 0.00
0.00 0.01 0.01 0.01 0.01 0.02 0.04 0.04 0.06 0.07 0.07 0.09 0.11 0.12 0.11 0.08 0.06 0.05 0.03 0.02 0.01 0.02 0.01 0.01 0.01 0.01 0.00 0.00 0.00 0.00 0.00 0.00 0.00 0.00 0.00 0.00 0.00 0.00 0.00 0.00 0.00 0.00 0.00
0.00 0.00 0.00 0.01 0.01 0.02 0.04 0.04 0.05 0.05 0.05 0.08 0.09 0.09 0.08 0.07 0.06 0.04 0.03 0.02 0.02 0.02 0.01 0.01 0.01 0.01 0.01 0.01 0.01 0.01 0.00 0.00 0.00 0.00 0.00 0.00 0.00 0.00 0.00 0.00 0.00 0.00 0.00
0.00 0.00 0.00 0.01 0.01 0.02 0.04 0.03 0.04 0.04 0.04 0.06 0.07 0.06 0.06 0.06 0.06 0.06 0.04 0.04 0.04 0.03 0.02 0.01 0.01 0.02 0.02 0.01 0.01 0.01 0.01 0.00 0.01 0.01 0.01 0.00 0.00 0.00 0.00 0.00 0.00 0.00 0.00
0.00 0.00 0.00 0.00 0.00 0.01 0.02 0.02 0.03 0.03 0.03 0.04 0.04 0.05 0.05 0.05 0.05 0.05 0.05 0.06 0.05 0.04 0.02 0.02 0.02 0.02 0.02 0.02 0.01 0.01 0.01 0.00 0.00 0.00 0.00 0.00 0.00 0.00 0.00 0.00 0.00 0.00 0.00
0.00 0.00 0.00 0.00 0.00 0.00 0.00 0.01 0.01 0.01 0.02 0.03 0.03 0.04 0.05 0.03 0.03 0.03 0.04 0.04 0.03 0.03 0.02 0.02 0.02 0.01 0.02 0.02 0.01 0.01 0.01 0.01 0.01 0.01 0.01 0.00 0.00 0.00 0.00 0.00 0.00 0.00 0.00
0.00 0.00 0.00 0.00 0.00 0.00 0.00 0.00 0.00 0.01 0.01 0.01 0.01 0.02 0.03 0.03 0.03 0.04 0.04 0.04 0.04 0.03 0.02 0.03 0.02 0.02 0.02 0.02 0.02 0.01 0.01 0.01 0.01 0.01 0.01 0.01 0.01 0.01 0.01 0.01 0.01 0.01 0.01
0.00 0.00 0.00 0.00 0.01 0.00 0.00 0.00 0.00 0.00 0.00 0.00 0.01 0.01 0.03 0.05 0.06 0.07 0.08 0.06 0.05 0.05 0.03 0.02 0.02 0.02 0.02 0.02 0.02 0.02 0.02 0.01 0.01 0.01 0.01 0.01 0.01 0.01 0.01 0.01 0.01 0.01 0.01
0.01 0.01 0.00 0.00 0.00 0.00 0.00 0.00 0.00 0.01 0.00 0.01 0.01 0.01 0.02 0.03 0.03 0.04 0.05 0.04 0.03 0.03 0.03 0.02 0.02 0.02 0.02 0.02 0.02 0.02 0.02 0.01 0.01 0.01 0.02 0.02 0.01 0.01 0.01 0.00 0.01 0.01 0.01
0.00 0.01 0.01 0.01 0.01 0.01 0.01 0.00 0.01 0.01 0.01 0.01 0.01 0.02 0.02 0.02 0.02 0.03 0.02 0.02 0.02 0.02 0.02 0.02 0.02 0.02 0.02 0.02 0.02 0.03 0.02 0.03 0.03 0.04 0.04 0.03 0.02 0.01 0.01 0.00 0.00 0.01 0.01
0.01 0.01 0.02 0.02 0.01 0.01 0.01 0.02 0.02 0.02 0.02 0.02 0.03 0.02 0.02 0.02 0.02 0.03 0.03 0.02 0.02 0.02 0.02 0.02 0.02 0.03 0.03 0.03 0.03 0.03 0.03 0.04 0.05 0.05 0.04 0.04 0.03 0.02 0.01 0.01 0.01 0.01 0.01
0.02 0.02 0.02 0.02 0.01 0.01 0.01 0.01 0.01 0.01 0.02 0.02 0.03 0.03 0.03 0.02 0.02 0.02 0.02 0.03 0.03 0.03 0.03 0.03 0.03 0.03 0.04 0.05 0.04 0.03 0.02 0.03 0.03 0.03 0.03 0.03 0.03 0.03 0.02 0.03 0.02 0.02 0.02
0.02 0.02 0.02 0.02 0.02 0.01 0.00 0.00 0.01 0.01 0.01 0.02 0.03 0.03 0.03 0.03 0.03 0.03 0.03 0.03 0.04 0.04 0.04 0.04 0.03 0.03 0.04 0.05 0.05 0.05 0.04 0.03 0.03 0.03 0.04 0.05 0.05 0.06 0.06 0.05 0.05 0.05 0.04
0.01 0.02 0.01 0.01 0.01 0.01 0.01 0.02 0.02 0.02 0.02 0.02 0.03 0.03 0.03 0.03 0.03 0.04 0.05 0.05 0.04 0.04 0.04 0.03 0.03 0.03 0.03 0.05 0.06 0.06 0.05 0.05 0.04 0.05 0.06 0.07 0.06 0.06 0.06 0.05 0.05 0.05 0.05
0.01 0.02 0.02 0.02 0.01 0.01 0.01 0.02 0.02 0.02 0.02 0.02 0.03 0.03 0.03 0.03 0.03 0.03 0.04 0.04 0.04 0.04 0.03 0.03 0.03 0.03 0.04 0.04 0.06 0.07 0.07 0.07 0.07 0.06 0.06 0.06 0.06 0.06 0.06 0.06 0.05 0.06 0.06
0.01 0.01 0.02 0.02 0.02 0.01 0.01 0.01 0.01 0.02 0.02 0.01 0.02 0.02 0.02 0.02 0.03 0.03 0.03 0.04 0.04 0.04 0.03 0.04 0.04 0.04 0.05 0.05 0.04 0.04 0.05 0.06 0.05 0.05 0.05 0.04 0.04 0.03 0.03 0.04 0.05 0.05 0.05
0.02 0.01 0.02 0.03 0.03 0.02 0.01 0.01 0.02 0.01 0.01 0.01 0.02 0.01 0.02 0.02 0.02 0.02 0.03 0.03 0.04 0.04 0.04 0.04 0.05 0.04 0.04 0.05 0.05 0.05 0.05 0.04 0.04 0.04 0.04 0.04 0.03 0.03 0.04 0.04 0.06 0.06 0.05
0.02 0.02 0.02 0.02 0.03 0.03 0.03 0.03 0.02 0.01 0.02 0.02 0.01 0.01 0.01 0.02 0.02 0.02 0.02 0.03 0.03 0.03 0.04 0.04 0.05 0.05 0.06 0.07 0.07 0.07 0.07 0.07 0.07 0.06 0.07 0.07 0.06 0.06 0.05 0.05 0.05 0.05 0.05
0.02 0.02 0.02 0.02 0.03 0.03 0.04 0.03 0.02 0.02 0.02 0.01 0.01 0.01 0.01 0.01 0.01 0.02 0.03 0.05 0.05 0.06 0.06 0.06 0.06 0.07 0.06 0.07 0.08 0.08 0.08 0.08 0.08 0.07 0.07 0.07 0.06 0.06 0.06 0.05 0.05 0.05 0.04
0.04 0.04 0.04 0.03 0.04 0.04 0.03 0.02 0.02 0.02 0.01 0.01 0.00 0.00 0.00 0.01 0.01 0.02 0.03 0.04 0.04 0.05 0.05 0.04 0.04 0.04 0.04 0.03 0.03 0.04 0.04 0.04 0.04 0.04 0.04 0.04 0.04 0.04 0.05 0.05 0.05 0.05 0.05
MSLP
1008.97 1009.21 1009.49 1009.81 1010.20 1010.65 1011.16 1011.70 1012.26 1012.79 1013.28 1013.72 1014.10 1014.45 1014.78 1015.14 1015.53 1015.96 1016.43 1016.90 1017.35 1017.73 1018.03 1018.22 1018.31 1018.33 1018.31 1018.31 1018.35 1018.47 1018.66 1018.92 1019.22 1019.52 1019.78 1019.98 1020.09 1020.13 1020.09 1020.00 1019.90 1019.82 1019.78
1009.27 1009.50 1009.73 1009.98 1010.27 1010.62 1011.04 1011.52 1012.05 1012.59 1013.13 1013.63 1014.09 1014.51 1014.90 1015.28 1015.68 1016.10 1016.54 1016.98 1017.41 1017.78 1018.08 1018.28 1018.40 1018.44 1018.44 1018.44 1018.47 1018.57 1018.74 1018.98 1019.27 1019.56 1019.82 1020.03 1020.15 1020.19 1020.14 1020.05 1019.93 1019.82 1019.74
1009.32 1009.57 1009.79 1010.00 1010.22 1010.49 1010.84 1011.26 1011.77 1012.32 1012.90 1013.47 1014.01 1014.51 1014.96 1015.38 1015.79 1016.19 1016.60 1017.02 1017.41 1017.77 1018.07 1018.29 1018.43 1018.50 1018.53 1018.54 1018.58 1018.66 1018.81 1019.02 1019.27 1019.54 1019.80 1020.00 1020.13 1020.18 1020.15 1020.06 1019.94 1019.82 1019.73
1009.16 1009.46 1009.71 1009.92 1010.11 1010.34 1010.63 1011.02 1011.49 1012.06 1012.67 1013.29 1013.90 1014.46 1014.97 1015.42 1015.83 1016.23 1016.61 1016.99 1017.36 1017.70 1018.01 1018.25 1018.42 1018.53 1018.59 1018.63 1018.68 1018.75 1018.87 1019.05 1019.27 1019.51 1019.74 1019.93 1020.07 1020.13 1020.12 1020.05 1019.94 1019.82 1019.72
1008.88 1009.26 1009.58 1009.82 1010.03 1010.25 1010.52 1010.88 1011.34 1011.89 1012.51 1013.17 1013.81 1014.41 1014.95 1015.42 1015.84 1016.21 1016.57 1016.91 1017.25 1017.58 1017.89 1018.15 1018.37 1018.53 1018.64 1018.72 1018.78 1018.86 1018.97 1019.11 1019.29 1019.49 1019.69 1019.86 1019.98 1020.05 1020.06 1020.01 1019.92 1019.81 1019.71
1008.58 1009.07 1009.48 1009.80 1010.06 1010.31 1010.58 1010.92 1011.36 1011.89 1012.50 1013.15 1013.80 1014.41 1014.96 1015.43 1015.83 1016.17 1016.49 1016.80 1017.11 1017.43 1017.74 1018.03 1018.28 1018.50 1018.66 1018.79 1018.89 1018.98 1019.08 1019.20 1019.33 1019.48 1019.64 1019.78 1019.89 1019.95 1019.97 1019.93 1019.86 1019.76 1019.66
1008.35 1008.95 1009.47 1009.90 1010.24 1010.54 1010.83 1011.17 1011.59 1012.09 1012.67 1013.29 1013.91 1014.50 1015.02 1015.46 1015.83 1016.14 1016.41 1016.68 1016.96 1017.26 1017.57 1017.88 1018.18 1018.44 1018.67 1018.84 1018.98 1019.09 1019.18 1019.27 1019.37 1019.48 1019.59 1019.69 1019.77 1019.83 1019.84 1019.82 1019.76 1019.68 1019.58
1008.21 1008.91 1009.55 1010.09 1010.53 1010.89 1011.23 1011.58 1011.98 1012.45 1012.99 1013.56 1014.13 1014.67 1015.15 1015.55 1015.87 1016.13 1016.36 1016.58 1016.83 1017.10 1017.41 1017.73 1018.06 1018.36 1018.63 1018.85 1019.02 1019.14 1019.23 1019.31 1019.37 1019.43 1019.50 1019.56 1019.62 1019.66 1019.68 1019.66 1019.62 1019.55 1019.46
1008.16 1008.93 1009.66 1010.30 1010.83 1011.27 1011.66 1012.03 1012.43 1012.88 1013.38 1013.90 1014.41 1014.90 1015.32 1015.66 1015.93 1016.14 1016.33 1016.51 1016.72 1016.96 1017.25 1017.57 1017.91 1018.23 1018.53 1018.78 1018.97 1019.10 1019.19 1019.25 1019.28 1019.31 1019.34 1019.38 1019.42 1019.45 1019.47 1019.47 1019.44 1019.39 1019.32
1008.12 1008.93 1009.71 1010.42 1011.02 1011.53 1011.97 1012.38 1012.80 1013.24 1013.71 1014.19 1014.66 1015.09 1015.46 1015.76 1015.99 1016.16 1016.30 1016.44 1016.61 1016.82 1017.09 1017.39 1017.72 1018.05 1018.35 1018.60 1018.80 1018.94 1019.02 1019.06 1019.08 1019.09 1019.10 1019.13 1019.15 1019.19 1019.22 1019.24 1019.24 1019.21 1019.15
1008.02 1008.82 1009.61 1010.34 1010.98 1011.53 1012.03 1012.48 1012.93 1013.38 1013.85 1014.31 1014.76 1015.16 1015.50 1015.77 1015.96 1016.10 1016.21 1016.33 1016.46 1016.65 1016.88 1017.16 1017.46 1017.77 1018.06 1018.30 1018.49 1018.63 1018.71 1018.75 1018.76 1018.77 1018.78 1018.80 1018.84 1018.89 1018.94 1018.98 1019.00 1018.99 1018.96
1007.82 1008.55 1009.29 1010.00 1010.64 1011.22 1011.75 1012.25 1012.73 1013.22 1013.70 1014.18 1014.62 1015.02 1015.35 1015.61 1015.79 1015.92 1016.02 1016.11 1016.23 1016.39 1016.59 1016.84 1017.11 1017.39 1017.66 1017.88 1018.06 1018.19 1018.27 1018.32 1018.34 1018.36 1018.39 1018.44 1018.50 1018.57 1018.64 1018.70 1018.74 1018.75 1018.73
1007.52 1008.15 1008.80 1009.43 1010.04 1010.61 1011.15 1011.68 1012.20 1012.73 1013.25 1013.75 1014.22 1014.63 1014.97 1015.24 1015.43 1015.56 1015.66 1015.76 1015.87 1016.02 1016.20 1016.42 1016.67 1016.92 1017.16 1017.37 1017.53 1017.66 1017.75 1017.81 1017.86 1017.91 1017.98 1018.06 1018.15 1018.25 1018.34 1018.42 1018.46 1018.47 1018.44
1007.19 1007.69 1008.21 1008.74 1009.27 1009.80 1010.33 1010.87 1011.43 1011.99 1012.55 1013.09 1013.58 1014.02 1014.38 1014.67 1014.87 1015.03 1015.14 1015.25 1015.37 1015.52 1015.70 1015.91 1016.14 1016.37 1016.59 1016.79 1016.96 1017.09 1017.20 1017.29 1017.38 1017.47 1017.58 1017.69 1017.82 1017.94 1018.05 1018.12 1018.15 1018.14 1018.08
1006.94 1007.29 1007.67 1008.08 1008.51 1008.97 1009.47 1010.00 1010.56 1011.15 1011.73 1012.30 1012.82 1013.27 1013.66 1013.95 1014.18 1014.36 1014.50 1014.63 1014.77 1014.93 1015.12 1015.34 1015.57 1015.80 1016.02 1016.22 1016.40 1016.55 1016.68 1016.81 1016.93 1017.07 1017.22 1017.37 1017.52 1017.66 1017.75 1017.81 1017.80 1017.74 1017.63
1006.87 1007.10 1007.34 1007.61 1007.93 1008.31 1008.75 1009.25 1009.80 1010.38 1010.97 1011.54 1012.06 1012.52 1012.91 1013.22 1013.46 1013.65 1013.82 1013.98 1014.15 1014.34 1014.55 1014.79 1015.04 1015.29 1015.53 1015.74 1015.94 1016.11 1016.27 1016.43 1016.59 1016.75 1016.93 1017.10 1017.26 1017.39 1017.46 1017.47 1017.41 1017.28 1017.10
1007.08 1007.19 1007.32 1007.48 1007.69 1007.98 1008.35 1008.79 1009.30 1009.85 1010.42 1010.97 1011.48 1011.92 1012.29 1012.60 1012.84 1013.04 1013.22 1013.41 1013.61 1013.84 1014.09 1014.37 1014.65 1014.93 1015.19 1015.42 1015.64 1015.83 1016.01 1016.18 1016.36 1016.54 1016.72 1016.89 1017.03 1017.13 1017.16 1017.11 1016.98 1016.77 1016.51
1007.58 1007.63 1007.68 1007.74 1007.87 1008.07 1008.36 1008.74 1009.19 1009.70 1010.22 1010.72 1011.19 1011.59 1011.93 1012.22 1012.45 1012.65 1012.84 1013.05 1013.29 1013.55 1013.85 1014.16 1014.48 1014.80 1015.09 1015.34 1015.57 1015.77 1015.95 1016.11 1016.28 1016.43 1016.59 1016.72 1016.82 1016.86 1016.83 1016.71 1016.51 1016.23 1015.89
1008.34 1008.37 1008.36 1008.37 1008.43 1008.56 1008.78 1009.10 1009.49 1009.93 1010.39 1010.84 1011.25 1011.61 1011.91 1012.16 1012.37 1012.57 1012.77 1013.00 1013.26 1013.57 1013.90 1014.26 1014.62 1014.96 1015.27 1015.53 1015.76 1015.94 1016.09 1016.21 1016.32 1016.42 1016.51 1016.58 1016.60 1016.58 1016.47 1016.29 1016.02 1015.67 1015.27
1009.26 1009.29 1009.28 1009.26 1009.28 1009.36 1009.53 1009.78 1010.11 1010.49 1010.89 1011.28 1011.64 1011.95 1012.22 1012.44 1012.63 1012.83 1013.04 1013.29 1013.58 1013.92 1014.29 1014.68 1015.07 1015.42 1015.73 1015.99 1016.18 1016.32 1016.40 1016.45 1016.48 1016.49 1016.48 1016.45 1016.38 1016.27 1016.09 1015.85 1015.52 1015.13 1014.69
1010.22 1010.29 1010.29 1010.27 1010.27 1010.33 1010.46 1010.67 1010.95 1011.28 1011.63 1011.97 1012.29 1012.56 1012.80 1013.00 1013.20 1013.39 1013.62 1013.90 1014.22 1014.58 1014.98 1015.40 1015.79 1016.15 1016.44 1016.66 1016.80 1016.87 1016.86 1016.80 1016.71 1016.60 1016.47 1016.33 1016.16 1015.96 1015.71 1015.41 1015.05 1014.64 1014.19
1011.14 1011.25 1011.27 1011.27 1011.27 1011.32 1011.44 1011.62 1011.87 1012.16 1012.47 1012.78 1013.07 1013.33 1013.55 1013.76 1013.96 1014.18 1014.43 1014.73 1015.08 1015.47 1015.90 1016.32 1016.71 1017.05 1017.31 1017.48 1017.54 1017.51 1017.40 1017.22 1016.99 1016.75 1016.49 1016.22 1015.95 1015.67 1015.36 1015.02 1014.64 1014.22 1013.78
1011.97 1012.10 1012.16 1012.18 1012.20 1012.25 1012.36 1012.53 1012.76 1013.03 1013.32 1013.61 1013.88 1014.14 1014.37 1014.59 1014.81 1015.06 1015.34 1015.68 1016.05 1016.47 1016.90 1017.32 1017.70 1018.01 1018.22 1018.33 1018.31 1018.18 1017.95 1017.64 1017.29 1016.91 1016.53 1016.16 1015.79 1015.44 1015.09 1014.73 1014.34 1013.93 1013.50
1012.69 1012.85 1012.93 1012.98 1013.02 1013.09 1013.20 1013.36 1013.58 1013.83 1014.10 1014.38 1014.64 1014.90 1015.14 1015.39 1015.65 1015.93 1016.25 1016.61 1017.01 1017.44 1017.88 1018.29 1018.64 1018.91 1019.07 1019.11 1019.01 1018.78 1018.45 1018.04 1017.57 1017.09 1016.61 1016.15 1015.72 1015.32 1014.94 1014.57 1014.19 1013.80 1013.37
1013.35 1013.53 1013.63 1013.70 1013.76 1013.85 1013.96 1014.12 1014.32 1014.55 1014.80 1015.06 1015.32 1015.57 1015.83 1016.09 1016.38 1016.69 1017.04 1017.42 1017.84 1018.28 1018.71 1019.10 1019.43 1019.65 1019.76 1019.73 1019.56 1019.27 1018.86 1018.37 1017.83 1017.28 1016.74 1016.23 1015.77 1015.35 1014.97 1014.60 1014.24 1013.85 1013.44
1014.00 1014.19 1014.32 1014.41 1014.50 1014.59 1014.71 1014.85 1015.03 1015.23 1015.45 1015.67 1015.91 1016.15 1016.41 1016.68 1016.97 1017.30 1017.67 1018.07 1018.49 1018.92 1019.33 1019.70 1019.98 1020.16 1020.22 1020.15 1019.93 1019.59 1019.15 1018.62 1018.06 1017.49 1016.93 1016.42 1015.97 1015.56 1015.19 1014.85 1014.50 1014.13 1013.72
Thickness
5771 5765 5760 5756 5750 5745 5741 5739 5736 5734 5733 5731 5730 5729 5730 5730 5731 5731 5730 5729 5728 5727 5727 5729 5726 5727 5728 5726 5726 5726 5724 5725 5725 5724 5722 5722 5723 5721 5719 5719 5717 5716 5714
5767 5761 5757 5753 5749 5744 5741 5738 5737 5736 5734 5733 5731 5730 5730 5729 5730 5729 5728 5728 5727 5726 5727 5727 5727 5727 5725 5724 5725 5723 5726 5726 5725 5724 5721 5717 5716 5717 5721 5719 5717 5716 5715
5765 5760 5756 5753 5749 5745 5742 5741 5738 5736 5734 5733 5731 5728 5726 5727 5727 5726 5727 5727 5727 5727 5727 5726 5728 5726 5727 5726 5724 5724 5723 5724 5724 5726 5724 5719 5716 5716 5718 5717 5717 5715 5715
5767 5762 5757 5754 5750 5747 5744 5741 5739 5736 5734 5733 5731 5728 5726 5726 5728 5728 5728 5726 5726 5726 5725 5725 5725 5726 5728 5725 5725 5726 5725 5723 5724 5723 5723 5724 5724 5718 5715 5716 5717 5715 5714
5769 5763 5759 5755 5752 5749 5745 5742 5739 5737 5735 5733 5731 5728 5729 5729 5729 5728 5726 5725 5725 5725 5725 5725 5725 5724 5726 5725 5724 5723 5724 5725 5725 5725 5724 5721 5720 5720 5718 5714 5714 5716 5716
5769 5764 5760 5756 5752 5749 5745 5742 5738 5735 5734 5732 5731 5729 5730 5729 5727 5726 5725 5725 5725 5725 5725 5725 5724 5724 5725 5723 5723 5723 5723 5724 5723 5724 5725 5723 5721 5720 5719 5715 5713 5714 5716
5768 5762 5758 5754 5751 5747 5744 5741 5737 5734 5733 5731 5730 5730 5730 5729 5727 5727 5726 5727 5727 5727 5725 5726 5723 5724 5723 5723 5723 5722 5723 5722 5720 5720 5722 5724 5724 5723 5721 5718 5716 5714 5716
5769 5764 5760 5756 5751 5748 5745 5741 5737 5735 5734 5732 5731 5731 5730 5730 5730 5729 5730 5729 5730 5730 5727 5725 5723 5723 5722 5722 5721 5723 5722 5720 5719 5720 5719 5720 5722 5722 5721 5718 5716 5712 5713
5770 5766 5761 5758 5754 5750 5747 5743 5739 5735 5734 5733 5731 5730 5730 5731 5732 5730 5729 5730 5729 5729 5726 5725 5723 5722 5721 5721 5720 5722 5720 5719 5718 5719 5717 5717 5720 5719 5719 5718 5716 5711 5708
5773 5768 5764 5760 5757 5753 5748 5745 5741 5736 5734 5733 5732 5732 5731 5730 5730 5729 5728 5728 5728 5727 5726 5724 5723 5721 5720 5719 5718 5719 5718 5716 5716 5715 5715 5713 5717 5716 5715 5714 5713 5712 5708
5775 5770 5765 5762 5758 5754 5749 5745 5741 5737 5734 5733 5732 5732 5730 5730 5730 5728 5728 5727 5726 5725 5724 5723 5722 5721 5719 5718 5716 5717 5716 5714 5714 5713 5712 5710 5711 5712 5712 5711 5710 5708 5707
5776 5771 5766 5762 5757 5753 5750 5746 5743 5739 5737 5735 5733 5731 5730 5730 5729 5729 5729 5728 5726 5725 5723 5722 5721 5720 5719 5717 5715 5714 5714 5712 5711 5710 5709 5708 5707 5705 5705 5705 5705 5704 5702
5774 5771 5766 5761 5757 5754 5751 5748 5745 5742 5739 5737 5734 5732 5731 5730 5729 5731 5730 5727 5725 5724 5723 5721 5719 5718 5718 5716 5714 5713 5712 5710 5709 5708 5706 5704 5703 5700 5701 5698 5699 5699 5698
5771 5768 5764 5760 5758 5755 5751 5748 5746 5745 5742 5738 5735 5732 5731 5730 5730 5730 5729 5726 5724 5723 5721 5720 5718 5717 5716 5714 5712 5711 5709 5707 5705 5704 5702 5701 5699 5696 5695 5693 5692 5691 5691
5765 5763 5761 5758 5755 5752 5750 5748 5746 5745 5743 5739 5737 5735 5733 5732 5730 5729 5728 5726 5724 5722 5719 5718 5716 5715 5713 5712 5710 5708 5706 5703 5701 5699 5697 5696 5694 5692 5689 5689 5688 5685 5683
5760 5758 5756 5754 5751 5749 5747 5746 5745 5744 5742 5738 5736 5735 5733 5731 5729 5728 5726 5724 5722 5720 5718 5715 5714 5711 5711 5708 5703 5701 5701 5698 5696 5693 5692 5690 5687 5684 5680 5678 5676 5675 5674
5754 5752 5751 5749 5747 5746 5745 5743 5743 5741 5739 5736 5734 5733 5731 5729 5727 5726 5723 5721 5718 5716 5713 5711 5710 5707 5704 5700 5696 5693 5692 5692 5690 5687 5685 5684 5685 5679 5677 5673 5668 5666 5663
5747 5745 5745 5744 5744 5744 5743 5742 5741 5738 5735 5733 5731 5729 5727 5726 5724 5721 5719 5716 5714 5712 5709 5707 5705 5702 5699 5693 5689 5686 5684 5685 5683 5680 5678 5676 5674 5671 5668 5666 5665 5663 5661
5737 5737 5739 5739 5738 5738 5737 5736 5734 5732 5729 5727 5725 5724 5723 5721 5719 5716 5713 5711 5708 5706 5703 5701 5698 5695 5691 5685 5681 5677 5678 5677 5675 5673 5670 5667 5664 5659 5656 5654 5654 5653 5653
5728 5728 5729 5729 5729 5729 5730 5727 5724 5722 5720 5719 5718 5717 5716 5714 5712 5710 5707 5705 5701 5698 5695 5692 5690 5687 5682 5676 5673 5669 5671 5669 5667 5664 5660 5655 5653 5648 5645 5643 5643 5641 5642
5716 5717 5717 5717 5717 5719 5719 5716 5714 5711 5711 5710 5709 5708 5706 5705 5703 5701 5699 5696 5693 5689 5686 5683 5680 5676 5672 5667 5663 5660 5661 5659 5656 5654 5651 5647 5640 5637 5634 5631 5631 5630 5628
5704 5705 5705 5704 5706 5707 5707 5704 5701 5700 5700 5699 5697 5696 5695 5695 5694 5690 5688 5685 5683 5679 5675 5672 5668 5665 5661 5656 5651 5648 5646 5645 5644 5642 5639 5635 5629 5625 5622 5620 5618 5615 5613
5691 5692 5692 5691 5692 5693 5693 5690 5688 5689 5688 5686 5685 5683 5682 5681 5680 5679 5676 5674 5672 5670 5666 5662 5658 5654 5650 5644 5639 5635 5633 5631 5629 5629 5623 5619 5615 5612 5611 5607 5605 5603 5605
5678 5680 5680 5679 5677 5678 5678 5677 5676 5676 5675 5673 5672 5671 5669 5667 5665 5665 5664 5662 5660 5657 5654 5651 5646 5642 5637 5632 5628 5626 5623 5618 5616 5614 5610 5605 5602 5600 5598 5596 5595 5594 5594
5665 5666 5666 5665 5664 5664 5663 5663 5662 5662 5662 5660 5659 5658 5656 5653 5649 5646 5642 5642 5637 5636 5635 5634 5631 5627 5622 5612 5606 5607 5607 5604 5601 5598 5598 5596 5594 5592 5589 5587 5585 5583 5580
5652 5652 5652 5652 5652 5651 5650 5650 5650 5650 5649 5648 5647 5646 5644 5641 5639 5635 5629 5619 5619 5615 5613 5610 5610 5605 5598 5594 5592 5589 5587 5585 5583 5583 5586 5583 5580 5577 5575 5572 5570 5568 5565